sat.trackr.live / text

‹ back to catalog

KUIPER-00245

NORAD 67150 · 2025-301T

PAYLOAD ACTIVE UNKNOWN

§ Identity

Operator
Country
US
Launch date
2025-12-16
Launch site
AFETR
Launch vehicle
Mass (kg)
RCS (m²)

External: N2YO · Heavens-Above · Gunter

§ Orbital elements

Epoch: 2026-09-19T03:31:31.131840Z

Period
97.30 min
Inclination
51.9051°
Eccentricity
0.0000433
Mean motion
14.79935348 rev/d
Perigee alt
629.2 km
Apogee alt
629.8 km
Semi-major
7,007.7 km
B*
2.6886e-4
RAAN
307.7109°
Arg perigee
89.0825°
Mean anomaly
271.0187°
Rev number
4,213

§ Raw data

KUIPER-002451 67150U 25301T   26262.14688810  .00001829  00000+0  26886-3 0  99962 67150  51.9051 307.7109 0000433  89.0825 271.0187 14.79935348 42130

JSON: /api/v1/satellites/67150 · /tle

For live sub-satellite position, see the globe view (requires WebGL).

§ Visibility from observer

Set your observer location to see the next 7 days of passes ≥ 10°. The values pass through the URL so the page stays shareable.

No JS? Fill the form by hand. The geolocation button needs JavaScript.